FW1340 Weather Reports


time (UTC)temp
C
wind
direction
speed
KPH
gust
KPH
rain 1hr
cm
rain 24hr
cm
rain mn
cm
humidity
%
barometer
mb
20260905034546 19 265 0.0 0.0 0.00 0.00 0.00 64 1013.6
20260905033046 20 269 0.0 0.0 0.00 0.00 0.00 62 1013.5
20260905031546 20 255 0.0 0.0 0.00 0.00 0.00 59 1013.3
20260905030046 21 266 0.0 0.0 0.00 0.00 0.00 55 1013.1
20260905024544 21 257 0.0 0.0 0.00 0.00 0.00 53 1013.0
20260905023047 22 271 0.0 0.0 0.00 0.00 0.00 50 1012.8
20260905021548 23 259 0.0 0.0 0.00 0.00 0.00 44 1012.7
20260905020043 24 261 0.0 0.0 0.00 0.00 0.00 40 1012.7
20260905014543 24 256 0.0 0.0 0.00 0.00 0.00 39 1012.7
20260905013049 25 235 0.0 0.0 0.00 0.00 0.00 38 1012.7
20260905011542 25 250 0.0 0.0 0.00 0.00 0.00 38 1012.6
20260905010049 25 265 0.0 0.0 0.00 0.00 0.00 38 1012.6
20260905004541 25 228 0.0 0.0 0.00 0.00 0.00 39 1012.6
20260905003040 25 242 0.0 0.0 0.00 0.00 0.00 38 1012.5
20260905001539 25 251 0.0 0.0 0.00 0.00 0.00 39 1012.6
20260905000040 25 257 0.0 0.0 0.00 0.00 0.00 38 1012.7
20260904234545 26 253 0.0 0.0 0.00 0.00 0.00 39 1012.8
20260904233038 26 271 0.0 0.0 0.00 0.00 0.00 37 1013.0
20260904231537 26 273 0.0 0.0 0.00 0.00 0.00 38 1013.0
20260904230037 26 303 0.0 0.0 0.00 0.00 0.00 39 1013.1
20260904224541 26 240 0.0 0.0 0.00 0.00 0.00 40 1013.3
20260904223034 25 248 0.0 0.0 0.00 0.00 0.00 40 1013.4
20260904221532 26 244 0.0 0.0 0.00 0.00 0.00 39 1013.4
20260904220133 25 313 0.0 0.0 0.00 0.00 0.00 39 1013.5
20260904214535 25 13 0.0 0.0 0.00 0.00 0.00 37 1013.4
20260904213028 25 270 0.0 0.0 0.00 0.00 0.00 38 1013.5
20260904211532 25 269 0.0 0.0 0.00 0.00 0.00 42 1013.5
20260904210031 24 129 0.0 0.0 0.00 0.00 0.00 42 1013.5
20260904204520 24 306 0.0 0.0 0.00 0.00 0.00 49 1013.6
20260904203031 24 288 0.0 0.0 0.00 0.00 0.00 49 1013.6
20260904201516 24 288 0.0 0.0 0.00 0.00 0.00 49 1013.5
20260904200013 23 242 0.0 0.0 0.00 0.00 0.00 53 1013.6
20260904194509 23 183 0.0 0.0 0.00 0.00 0.00 50 1013.8
20260904193008 22 238 0.0 0.0 0.00 0.00 0.00 55 1014.0
20260904191503 22 236 0.0 0.0 0.00 0.00 0.00 57 1014.2
20260904190002 21 256 0.0 0.0 0.00 0.00 0.00 58 1014.3
20260904184602 21 319 0.0 0.0 0.00 0.00 0.00 60 1014.3
20260904183118 22 271 0.0 0.0 0.00 0.00 0.00 60 1014.3
20260904181558 21 300 0.0 0.0 0.00 0.00 0.00 61 1014.3
20260904180118 21 261 0.0 0.0 0.00 0.00 0.00 62 1014.4
20260904174602 21 273 0.0 0.0 0.00 0.00 0.00 64 1014.4
20260904173047 20 278 0.0 0.0 0.00 0.00 0.00 67 1014.4
20260904171552 20 266 0.0 0.0 0.00 0.00 0.00 68 1014.3
20260904170049 20 231 0.0 0.0 0.00 0.00 0.00 67 1014.2
20260904164540 20 239 0.0 0.0 0.00 0.00 0.00 69 1014.0
20260904163035 18 258 0.0 0.0 0.00 0.00 0.00 71 1014.0
20260904161533 18 256 0.0 0.0 0.00 0.00 0.00 72 1013.9
20260904160028 18 240 0.0 0.0 0.00 0.00 0.00 74 1013.9
20260904154527 17 248 0.0 0.0 0.00 0.00 0.00 76 1013.9
20260904153021 17 228 0.0 0.0 0.00 0.00 0.00 78 1013.8
20260904151518 16 257 0.0 0.0 0.00 0.00 0.00 80 1013.9
20260904150019 16 238 0.0 0.0 0.00 0.00 0.00 85 1013.8
20260904144508 15 230 0.0 0.0 0.00 0.00 0.00 85 1013.5
20260904143008 15 240 0.0 0.0 0.00 0.00 0.00 84 1013.3
20260904141601 16 257 0.0 0.0 0.00 0.00 0.00 84 1013.2
20260904140059 16 257 0.0 0.0 0.00 0.00 0.00 84 1013.0
20260904134557 16 257 0.0 0.0 0.00 0.00 0.00 83 1012.8
20260904133051 16 265 0.0 0.0 0.00 0.00 0.00 83 1012.7
20260904131551 16 260 0.0 0.0 0.00 0.00 0.00 83 1012.6
20260904130050 16 259 0.0 0.0 0.00 0.00 0.00 83 1012.5
20260904124547 16 252 0.0 0.0 0.00 0.00 0.00 84 1012.4
20260904123046 16 257 0.0 0.0 0.00 0.00 0.00 84 1012.3
20260904121545 16 248 0.0 0.0 0.00 0.00 0.00 85 1012.3
20260904120053 16 264 0.0 0.0 0.00 0.00 0.00 86 1012.2
20260904114545 16 262 0.0 0.0 0.00 0.00 0.00 85 1012.2
20260904113042 16 247 0.0 0.0 0.00 0.00 0.00 83 1012.1
20260904111541 16 252 0.0 0.0 0.00 0.00 0.00 84 1012.1
20260904110043 16 266 0.0 0.0 0.00 0.00 0.00 84 1012.0
20260904104538 16 260 0.0 0.0 0.00 0.00 0.00 84 1012.0
20260904103039 17 271 0.0 0.0 0.00 0.00 0.00 85 1011.9
20260904101536 17 242 0.0 0.0 0.00 0.00 0.00 85 1011.7
20260904100040 17 275 0.0 0.0 0.00 0.00 0.00 85 1011.8
20260904094541 17 248 0.0 0.0 0.00 0.00 0.00 86 1011.8
20260904093134 17 261 0.0 0.0 0.00 0.00 0.00 87 1011.7
20260904091536 17 252 0.0 0.0 0.00 0.00 0.00 87 1011.7
20260904090032 17 257 0.0 0.0 0.00 0.00 0.00 88 1011.7
20260904084534 17 250 0.0 0.0 0.00 0.00 0.00 87 1011.7
20260904083030 17 259 0.0 0.0 0.00 0.00 0.00 87 1011.8
20260904081528 17 269 0.0 0.0 0.00 0.00 0.00 87 1011.8
20260904080028 17 269 0.0 0.0 0.00 0.00 0.00 87 1011.8
20260904074526 17 277 0.0 0.0 0.00 0.00 0.00 87 1011.8
20260904073024 17 263 0.0 0.0 0.00 0.00 0.00 86 1011.9
20260904071522 17 240 0.0 0.0 0.00 0.00 0.00 84 1011.9
20260904070019 18 275 0.0 0.0 0.00 0.00 0.00 83 1011.8
20260904064523 18 255 0.0 0.0 0.00 0.00 0.00 83 1011.8
20260904063026 18 267 0.0 0.0 0.00 0.00 0.00 83 1011.8
20260904061533 18 309 0.0 0.0 0.00 0.00 0.00 83 1011.8
20260904060022 18 271 0.0 0.0 0.00 0.00 0.00 83 1011.8
20260904054521 18 276 0.0 0.0 0.00 0.00 0.00 82 1011.8
20260904053016 18 255 0.0 0.0 0.00 0.00 0.00 82 1011.8
20260904051516 18 254 0.0 0.0 0.00 0.00 0.00 82 1011.8
20260904050026 18 264 0.0 0.0 0.00 0.00 0.00 82 1011.8
20260904044515 18 263 0.0 0.0 0.00 0.00 0.00 82 1011.8
20260904043015 18 259 0.0 0.0 0.00 0.00 0.00 82 1011.9
20260904041518 18 232 0.0 0.0 0.00 0.00 0.00 82 1011.8
20260904040031 18 275 0.0 0.0 0.00 0.00 0.00 81 1011.7